World > North America > United States > Ohio > Orange Village

Hourly Orange Village, OH Regional Weather

Feedback E-mail the Weather

Quick WX

Orange Village, OH Weather Maps

°F °C°F °C
Orange Village Weather Map
UTC Time: 8/12/2022, 09:29
Your Time:

Orange Village, OH Regional Weather

Expires:202208121000;;959790
ASUS41 KCLE 120910
RWRCLE
OHIO REGIONAL WEATHER ROUNDUP
NATIONAL WEATHER SERVICE WILMINGTON, OH
500 AM EDT FRI AUG 12 2022

NOTE: "FAIR" INDICATES FEW OR NO CLOUDS BELOW 12,000 FEET WITH NO
SIGNIFICANT WEATHER AND/OR OBSTRUCTIONS TO VISIBILITY.


OHZ009>014-019>023-028>033-038-089-121000-
   NORTHEAST OHIO
  
CITY           SKY/WX    TMP DP  RH WIND       PRES   REMARKS
CLE-HOPKINS    FAIR      64  54  69 N8        30.13S                  
CLE-LAKEFRONT  MOCLDY    68  55  63 NE10      30.13S                  
CUY CO. ARPT   FAIR      56  54  92 CALM      30.16S                  
LORAIN-ELYRIA  FAIR      54  50  86 CALM      30.15F                  
ASHTABULA      FAIR      55  52  89 CALM      30.15R                  
AKRON-CANTON   FAIR      61  55  81 N9        30.13F                  
WOOSTER        FAIR      54  50  86 N8        30.15S                  
MANSFIELD      FAIR      54  49  83 NW6       30.16S                  
YOUNGSTOWN     FAIR      54  52  93 NW7       30.13S                  
$$
 

SKY/WX - Weather  TMP - Temperature  DP - Dew Point  RH - Humidity
WIND - Wind Direction/Speed PRES - Barometric Pressure VSB - Visibility
WCI - Wind Chill Index E13G22 Wind - East Wind 13 mph/Gusts of 22 mph

Trending Headlines

Orange Village Radar Loop



Orange Village Quick Facts


National Two Day Weather Forecast


E-mail the Orange Village Weather Forecast

Voice your opinion or tell us about page issues...